Weather History for Bonaire, Bonaire

Change the Weather History Date:

Wednesday, October 24, 2012

  Actual Average Record
Temperature  
Mean Temperature 85 °F -  
Max Temperature 88 °F 86 °F 91 °F (1997)
Min Temperature 82 °F 79 °F 77 °F (2011)
Cooling Degree Days 20    
Growing Degree Days 35 (Base 50)    
Moisture  
Dew Point 78 °F    
Average Humidity 80    
Maximum Humidity 89    
Minimum Humidity 69    
Precipitation  
Precipitation 0.00 in - - ()
Sea Level Pressure  
Sea Level Pressure 29.76 in    
Wind  
Wind Speed 14 mph ()    
Max Wind Speed 21 mph    
Max Gust Speed -    
Visibility 9.2 miles    
Events      
Averages and records for this station are not official NWS values.
T = Trace of Precipitation, MM = Missing Value Source: Averaged Metar Reports

Daily Weather History Graph

Daily Weather History Graph

Search for Another Location

Airport:

Trip Planner

Search our weather history database for the weather conditions in past years. The results will help you decide how hot, cold, wet, or windy it might be!

Date:

Astronomy

Oct. 24, 2012 Rise Set
Actual Time 6:24 AM AST 6:10 PM AST
Civil Twilight 6:02 AM AST 6:31 PM AST
Nautical Twilight 5:37 AM AST 6:56 PM AST
Astronomical Twilight 5:12 AM AST 7:21 PM AST
Moon 2:40 PM AST (10/24) 2:05 AM AST (10/24)
Length of Visible Light 12h 29m
Length of Day
11h 45m
Waxing Gibbous, 76% of the Moon is Illuminated
Oct 24
Waxing Gibbous
Oct 29
Full
Nov 6
Last Quarter
Nov 13
New
Nov 20
First Quarter

Hourly Weather History & Observations

Time (AST) Temp. Heat Index Dew Point Humidity Pressure Visibility Wind Dir Wind Speed Gust Speed Precip Events Conditions
12:00 AM 82.4 °F 90.9 °F 77.0 °F 84% 29.80 in - North - - N/A   Unknown
1:00 AM 82.4 °F 90.9 °F 77.0 °F 84% 29.77 in - North - - N/A   Unknown
2:00 AM 83 °F - 77 °F 79%  in - ESE 11.5 mph - -   Clear
2:00 AM 82.4 °F 90.9 °F 77.0 °F 84% 29.74 in - North - - N/A   Unknown
3:00 AM 82.4 °F 90.9 °F 77.0 °F 84% 29.71 in - North - - N/A   Unknown
4:00 AM 82.4 °F 90.9 °F 77.0 °F 84% 29.71 in - North - - N/A   Unknown
5:00 AM - - - %  in - Calm Calm - -   Clear
5:00 AM 82.4 °F 90.9 °F 77.0 °F 84% 29.71 in - North - - N/A   Unknown
6:00 AM 82.4 °F 90.9 °F 77.0 °F 84% 29.71 in - North - - N/A   Unknown
7:00 AM 82.4 °F 90.9 °F 77.0 °F 84% 29.77 in 6.2 mi East 18.4 mph - N/A   Scattered Clouds
8:00 AM 84 °F - 78 °F 78% 29.81 in 19 mi East 17.3 mph - -   Partly Cloudy
8:00 AM 84.2 °F 96.1 °F 78.8 °F 84% 29.80 in 6.2 mi East 17.3 mph - N/A   Scattered Clouds
10:00 AM 87.8 °F 102.5 °F 78.8 °F 75% 29.83 in 6.2 mi ESE 20.7 mph - N/A   Scattered Clouds
11:00 AM 87 °F - 79 °F 71% 29.84 in 19 mi ESE 11.5 mph - -   Partly Cloudy
11:00 AM 87.8 °F 102.5 °F 78.8 °F 75% 29.83 in 6.2 mi ESE 20.7 mph - N/A   Scattered Clouds
12:00 PM 87.8 °F 102.5 °F 78.8 °F 75% 29.80 in 6.2 mi ESE 18.4 mph - N/A   Scattered Clouds
1:00 PM 87.8 °F 102.5 °F 78.8 °F 75% 29.77 in 6.2 mi East 18.4 mph - N/A   Scattered Clouds
2:00 PM 87 °F - 78 °F 69%  in - ESE 11.5 mph - -   Clear
2:00 PM 87.8 °F 102.5 °F 78.8 °F 75% 29.77 in - North - - N/A   Unknown
3:00 PM 86.0 °F 99.3 °F 78.8 °F 79% 29.74 in 6.2 mi East 18.4 mph - N/A   Partly Cloudy
4:00 PM 86.0 °F 96.9 °F 77.0 °F 74% 29.74 in 6.2 mi East 19.6 mph - N/A   Partly Cloudy
5:00 PM 84 °F - 77 °F 75% 29.74 in 19 mi East 16.1 mph - -   Partly Cloudy
5:00 PM 84.2 °F 94.1 °F 77.0 °F 79% 29.71 in 6.2 mi East 16.1 mph - N/A   Scattered Clouds
6:00 PM 84.2 °F 94.1 °F 77.0 °F 79% 29.71 in 6.2 mi East 15.0 mph - N/A   Scattered Clouds
7:00 PM 82.4 °F 90.9 °F 77.0 °F 84% 29.74 in 6.2 mi East 12.7 mph - N/A   Scattered Clouds
8:00 PM 83 °F - 77 °F 79% 29.78 in 16 mi East 13.8 mph - -   Partly Cloudy
8:00 PM 82.4 °F 90.9 °F 77.0 °F 84% 29.77 in 6.2 mi East 13.8 mph - N/A   Scattered Clouds
9:00 PM 82.4 °F 92.4 °F 78.8 °F 89% 29.80 in - North - - N/A   Unknown